Date String (YYYY-MM-DD hh:mm:ss) UTC,Instrument flags,absolute air pressure of the measurement (hPa),sample flow rate (lpm),inlet stack bypass flow (lpm),air temperature of the measurement (°C),ambient temperature measured by the external sensor (°C),aerosol sample conditioner tube jacket temperature (°C),OPC LED temperature (°C),internal box temperature (°C),relative humidity of the measurement (%),span deviation,mass concentration of particles derived from Lorenz-Mie calculation of OPC scattering (μg/m³),mass concentration of particles derived from Lorenz-Mie calculation of OPC scattering (μg/m³),mass concentration of particles derived from Lorenz-Mie calculation of OPC scattering (μg/m³)
DateTimeUTC,F1_M11,P_M11,Q1_M11,Q2_M11,T1_M11,T2_M11,T3_M11,T4_M11,T5_M11,U1_M11,ZSPAN_M11,X2_M11,X0_M11,X1_M11
2024-05-20 22:00:00,SystemResetWarning,0822.4,4.99,000.00,030.9,030.2,000.0,039.1,032.6,019.2,0000.0,0005.81,0023.51,0004.14
2024-05-20 22:01:00,SystemResetWarning,0822.4,4.99,000.00,030.9,030.3,000.0,039.1,032.6,019.0,0000.0,0005.88,0024.32,0004.15
2024-05-20 22:02:00,SystemResetWarning,0822.4,5.02,000.00,030.9,030.3,000.0,039.1,032.6,019.4,0000.0,0005.96,0025.70,0004.17
2024-05-20 22:03:00,SystemResetWarning,0822.4,5.00,000.00,030.9,030.3,000.0,039.1,032.6,019.1,0000.0,0005.94,0025.79,0004.19
2024-05-20 22:04:00,SystemResetWarning,0822.4,4.98,000.00,030.9,030.3,000.0,039.2,032.6,019.0,0000.0,0005.94,0026.37,0004.20
2024-05-20 22:05:00,SystemResetWarning,0822.4,5.02,000.00,031.0,030.3,000.0,039.2,032.6,019.0,0000.0,0005.90,0025.99,0004.20
2024-05-20 22:06:00,SystemResetWarning,0822.4,4.99,000.00,031.0,030.3,000.0,039.2,032.6,019.1,0000.0,0005.89,0025.90,0004.19
2024-05-20 22:07:00,SystemResetWarning,0822.4,4.99,000.00,031.0,030.3,000.0,039.2,032.6,019.2,0000.0,0005.88,0025.45,0004.18
2024-05-20 22:08:00,SystemResetWarning,0822.4,5.00,000.00,031.0,030.3,000.0,039.2,032.7,019.2,0000.0,0005.89,0025.56,0004.17
2024-05-20 22:09:00,SystemResetWarning,0822.4,5.00,000.00,031.0,030.3,000.0,039.2,032.7,019.1,0000.0,0005.85,0024.52,0004.15
2024-05-20 22:10:00,SystemResetWarning,0822.4,5.02,000.00,031.0,030.4,000.0,039.2,032.7,019.1,0000.0,0005.84,0025.04,0004.16
2024-05-20 22:11:00,SystemResetWarning,0822.4,4.99,000.00,031.0,030.4,000.0,039.3,032.7,019.2,0000.0,0005.79,0025.09,0004.16
2024-05-20 22:12:00,SystemResetWarning,0822.4,4.99,000.00,031.0,030.4,000.0,039.3,032.7,019.4,0000.0,0005.77,0023.51,0004.16
2024-05-20 22:13:00,SystemResetWarning,0822.4,5.00,000.00,031.0,030.4,000.0,039.3,032.7,018.9,0000.0,0005.74,0022.14,0004.16
2024-05-20 22:14:00,SystemResetWarning,0822.4,5.00,000.00,031.1,030.4,000.0,039.3,032.7,018.9,0000.0,0005.74,0021.95,0004.16
2024-05-20 22:15:00,SystemResetWarning,0822.3,5.00,000.00,031.1,030.4,000.0,039.3,032.7,018.9,0000.0,0005.74,0020.62,0004.17
2024-05-20 22:16:00,SystemResetWarning,0822.4,5.00,000.00,031.1,030.4,000.0,039.3,032.8,018.9,0000.0,0005.77,0019.41,0004.17
2024-05-20 22:17:00,SystemResetWarning,0822.4,5.01,000.00,031.1,030.4,000.0,039.3,032.8,018.9,0000.0,0005.76,0018.98,0004.17
2024-05-20 22:18:00,SystemResetWarning,0822.4,5.01,000.00,031.1,030.4,000.0,039.3,032.8,019.0,0000.0,0005.68,0018.49,0004.17
2024-05-20 22:19:00,SystemResetWarning,0822.5,5.01,000.00,031.1,030.5,000.0,039.3,032.8,018.9,0000.0,0005.68,0017.85,0004.18
2024-05-20 22:20:00,SystemResetWarning,0822.4,5.00,000.00,031.1,030.5,000.0,039.3,032.8,019.0,0000.0,0005.74,0019.02,0004.19
2024-05-20 22:21:00,SystemResetWarning,0822.4,4.99,000.00,031.1,030.5,000.0,039.3,032.8,018.8,0000.0,0005.68,0017.95,0004.18
2024-05-20 22:22:00,SystemResetWarning,0822.4,5.01,000.00,031.1,030.5,000.0,039.4,032.8,019.3,0000.0,0005.70,0017.16,0004.18
2024-05-20 22:23:00,SystemResetWarning,0822.4,5.01,000.00,031.1,030.5,000.0,039.4,032.8,019.2,0000.0,0005.69,0018.01,0004.16
2024-05-20 22:24:00,SystemResetWarning,0822.3,4.99,000.00,031.2,030.5,000.0,039.4,032.8,019.1,0000.0,0005.68,0019.54,0004.16
2024-05-20 22:25:00,SystemResetWarning,0822.2,4.99,000.00,031.2,030.5,000.0,039.4,032.8,019.1,0000.0,0005.68,0019.32,0004.15
2024-05-20 22:26:00,SystemResetWarning,0822.2,5.00,000.00,031.2,030.5,000.0,039.4,032.8,019.2,0000.0,0005.68,0018.83,0004.13
2024-05-20 22:27:00,SystemResetWarning,0822.1,5.01,000.00,031.2,030.5,000.0,039.4,032.8,019.3,0000.0,0005.72,0019.61,0004.13
2024-05-20 22:28:00,SystemResetWarning,0822.1,5.01,000.00,031.2,030.5,000.0,039.4,032.9,019.1,0000.0,0005.78,0020.87,0004.14
2024-05-20 22:29:00,SystemResetWarning,0822.1,4.99,000.00,031.2,030.6,000.0,039.4,032.9,019.0,0000.0,0005.83,0020.62,0004.16
2024-05-20 22:30:00,SystemResetWarning,0822.0,4.99,000.00,031.2,030.6,000.0,039.5,032.9,019.0,0000.0,0005.87,0020.25,0004.20
2024-05-20 22:31:00,SystemResetWarning,0821.9,5.02,000.00,031.2,030.6,000.0,039.5,032.9,019.0,0000.0,0005.84,0021.44,0004.21
2024-05-20 22:32:00,SystemResetWarning,0821.8,5.00,000.00,031.2,030.6,000.0,039.5,032.9,019.0,0000.0,0005.85,0022.95,0004.23
2024-05-20 22:33:00,SystemResetWarning,0821.6,4.99,000.00,031.2,030.6,000.0,039.5,032.9,019.1,0000.0,0005.91,0023.35,0004.24
2024-05-20 22:34:00,SystemResetWarning,0821.7,4.99,000.00,031.3,030.6,000.0,039.5,032.9,019.0,0000.0,0005.91,0023.56,0004.26
2024-05-20 22:35:00,SystemResetWarning,0821.8,5.01,000.00,031.3,030.6,000.0,039.5,032.9,019.1,0000.0,0005.91,0023.48,0004.28
2024-05-20 22:36:00,SystemResetWarning,0821.6,5.01,000.00,031.3,030.6,000.0,039.5,032.9,019.2,0000.0,0005.96,0024.05,0004.31
2024-05-20 22:37:00,SystemResetWarning,0821.6,5.00,000.00,031.3,030.6,000.0,039.5,032.9,019.2,0000.0,0005.94,0024.82,0004.31
2024-05-20 22:38:00,SystemResetWarning,0821.6,5.00,000.00,031.3,030.6,000.0,039.5,032.9,019.2,0000.0,0005.90,0024.73,0004.31
2024-05-20 22:39:00,SystemResetWarning,0821.7,5.00,000.00,031.3,030.7,000.0,039.6,033.0,019.1,0000.0,0005.86,0025.22,0004.30
2024-05-20 22:40:00,SystemResetWarning,0821.7,5.00,000.00,031.3,030.7,000.0,039.6,033.0,019.0,0000.0,0005.85,0025.76,0004.29
2024-05-20 22:41:00,SystemResetWarning,0821.8,5.01,000.00,031.3,030.7,000.0,039.6,033.0,019.3,0000.0,0005.80,0025.81,0004.25
2024-05-20 22:42:00,SystemResetWarning,0821.8,5.00,000.00,031.3,030.7,000.0,039.6,033.0,019.2,0000.0,0005.80,0023.56,0004.22
2024-05-20 22:43:00,SystemResetWarning,0821.9,5.00,000.00,031.4,030.7,000.0,039.6,033.0,019.0,0000.0,0005.86,0023.39,0004.21
2024-05-20 22:44:00,SystemResetWarning,0822.0,5.00,000.00,031.4,030.7,000.0,039.6,033.0,018.9,0000.0,0005.86,0023.40,0004.21
2024-05-20 22:45:00,SystemResetWarning,0821.9,5.00,000.00,031.4,030.7,000.0,039.6,033.0,019.1,0000.0,0005.93,0023.20,0004.20
2024-05-20 22:46:00,SystemResetWarning,0821.8,5.00,000.00,031.4,030.7,000.0,039.6,033.0,019.1,0000.0,0005.89,0021.82,0004.18
2024-05-20 22:47:00,SystemResetWarning,0821.8,5.00,000.00,031.4,030.7,000.0,039.6,033.0,019.1,0000.0,0005.87,0021.20,0004.15
2024-05-20 22:48:00,SystemResetWarning,0821.7,5.00,000.00,031.4,030.7,000.0,039.7,033.0,018.9,0000.0,0005.95,0022.98,0004.15
2024-05-20 22:49:00,SystemResetWarning,0821.7,5.00,000.00,031.4,030.8,000.0,039.7,033.0,019.1,0000.0,0005.97,0024.38,0004.16
2024-05-20 22:50:00,SystemResetWarning,0821.7,5.00,000.00,031.4,030.8,000.0,039.7,033.1,018.8,0000.0,0005.95,0023.88,0004.16
2024-05-20 22:51:00,SystemResetWarning,0821.7,5.00,000.00,031.4,030.8,000.0,039.7,033.1,018.7,0000.0,0005.94,0023.06,0004.17
2024-05-20 22:52:00,SystemResetWarning,0821.7,5.00,000.00,031.4,030.8,000.0,039.7,033.1,018.8,0000.0,0005.91,0023.14,0004.18
2024-05-20 22:53:00,SystemResetWarning,0821.7,4.99,000.00,031.5,030.8,000.0,039.7,033.1,019.0,0000.0,0005.91,0022.97,0004.19
2024-05-20 22:54:00,SystemResetWarning,0821.8,5.00,000.00,031.5,030.8,000.0,039.7,033.1,019.2,0000.0,0005.84,0022.06,0004.20
2024-05-20 22:55:00,SystemResetWarning,0821.8,5.00,000.00,031.5,030.8,000.0,039.7,033.1,019.0,0000.0,0005.82,0021.49,0004.20
2024-05-20 22:56:00,SystemResetWarning,0821.8,5.00,000.00,031.4,030.1,000.0,039.8,032.7,019.2,0000.0,0005.81,0022.55,0004.20
2024-05-20 22:57:00,SystemResetWarning,0821.7,5.00,000.00,031.0,027.7,000.0,039.8,031.4,019.6,0000.0,0005.78,0022.68,0004.21
2024-05-20 22:58:00,SystemResetWarning,0821.6,5.01,000.00,030.5,026.8,000.0,039.7,030.9,020.1,0000.0,0005.76,0023.48,0004.22
2024-05-20 22:59:00,SystemResetWarning,0821.6,5.01,000.00,030.3,027.1,000.0,039.6,031.0,020.3,0000.0,0005.72,0022.89,0004.23
